• In Sweden
  • List of Countries
  • For 7 days
  • Water Temperature
  • Satellite Maps
  • Weather Map
  • Weather Widgets
  • user-avatar
    Login

    Hourly Weather Vatican

    Today, 24 November, Friday

    Time Temperature Precipitation Wind Pressure Humidity
    00:00 +13°C° 0.1 mm 3 mps 764 mmHg 84%
    01:00 +14°C° 0.1 mm 2 mps 765 mmHg 84%
    02:00 +13°C° 0 mm 2 mps 764 mmHg 84%
    03:00 +13°C° 0 mm 2 mps 764 mmHg 83%
    04:00 +12°C° 0 mm 3 mps 764 mmHg 83%
    05:00 +12°C° 0 mm 3 mps 764 mmHg 83%
    06:00 +12°C° 0 mm 3 mps 764 mmHg 83%
    07:00 +12°C° 0 mm 3 mps 764 mmHg 83%
    08:00 +13°C° 0 mm 3 mps 764 mmHg 80%
    09:00 +16°C° 0 mm 3 mps 764 mmHg 76%
    10:00 +17°C° 0 mm 3 mps 764 mmHg 73%
    11:00 +17°C° 0 mm 3 mps 764 mmHg 70%
    12:00 +18°C° 0 mm 3 mps 764 mmHg 68%
    13:00 +19°C° 0 mm 2 mps 764 mmHg 66%
    14:00 +18°C° 0 mm 2 mps 763 mmHg 69%
    15:00 +18°C° 0 mm 2 mps 763 mmHg 72%
    16:00 +17°C° 0 mm 2 mps 763 mmHg 75%
    17:00 +17°C° 0 mm 2 mps 763 mmHg 79%
    18:00 +16°C° 0 mm 2 mps 763 mmHg 83%
    19:00 +15°C° 0 mm 2 mps 764 mmHg 87%
    20:00 +15°C° 0 mm 2 mps 764 mmHg 88%
    21:00 +15°C° 0 mm 2 mps 764 mmHg 88%
    22:00 +14°C° 0 mm 2 mps 764 mmHg 88%
    23:00 +14°C° 0 mm 2 mps 764 mmHg 88%

    Tomorrow, 25 November, Saturday

    Time Temperature Precipitation Wind Pressure Humidity
    00:00 +14°C° 0 mm 2 mps 764 mmHg 88%
    01:00 +14°C° 0 mm 2 mps 764 mmHg 87%
    02:00 +13°C° 0 mm 3 mps 763 mmHg 87%
    03:00 +13°C° 0 mm 3 mps 763 mmHg 87%
    04:00 +13°C° 0 mm 3 mps 762 mmHg 87%
    05:00 +13°C° 0 mm 3 mps 762 mmHg 87%
    06:00 +13°C° 0 mm 4 mps 762 mmHg 88%
    07:00 +13°C° 0 mm 4 mps 762 mmHg 88%
    08:00 +14°C° 0 mm 4 mps 761 mmHg 85%
    09:00 +15°C° 0 mm 5 mps 761 mmHg 82%
    10:00 +16°C° 0 mm 5 mps 761 mmHg 79%
    11:00 +17°C° 0 mm 5 mps 761 mmHg 76%
    12:00 +17°C° 0 mm 6 mps 760 mmHg 73%
    13:00 +19°C° 0 mm 6 mps 760 mmHg 70%
    14:00 +17°C° 0 mm 6 mps 759 mmHg 73%
    15:00 +17°C° 0 mm 6 mps 759 mmHg 76%
    16:00 +17°C° 0 mm 5 mps 759 mmHg 79%
    17:00 +16°C° 0.1 mm 6 mps 759 mmHg 82%
    18:00 +16°C° 0.1 mm 6 mps 759 mmHg 85%
    19:00 +16°C° 0.1 mm 6 mps 759 mmHg 88%
    20:00 +16°C° 0.2 mm 7 mps 759 mmHg 87%
    21:00 +16°C° 0.2 mm 8 mps 759 mmHg 85%
    22:00 +16°C° 0.2 mm 8 mps 759 mmHg 84%
    23:00 +15°C° 0.1 mm 9 mps 758 mmHg 80%

    Day after tomorrow, 26 November, Sunday

    Time Temperature Precipitation Wind Pressure Humidity
    00:00 +15°C° 0.1 mm 9 mps 758 mmHg 76%
    01:00 +14°C° 0.1 mm 10 mps 758 mmHg 73%
    02:00 +15°C° 0 mm 9 mps 758 mmHg 71%
    03:00 +13°C° 0 mm 9 mps 758 mmHg 70%
    04:00 +13°C° 0 mm 9 mps 758 mmHg 68%
    05:00 +12°C° 0 mm 9 mps 758 mmHg 68%
    06:00 +12°C° 0 mm 9 mps 758 mmHg 67%
    07:00 +12°C° 0 mm 9 mps 758 mmHg 67%
    08:00 +12°C° 0 mm 8 mps 758 mmHg 63%
    09:00 +13°C° 0 mm 8 mps 758 mmHg 60%
    10:00 +15°C° 0 mm 8 mps 758 mmHg 56%
    11:00 +13°C° 0 mm 8 mps 758 mmHg 56%
    12:00 +13°C° 0 mm 8 mps 758 mmHg 57%
    13:00 +13°C° 0 mm 8 mps 757 mmHg 57%
    14:00 +13°C° 0.1 mm 9 mps 757 mmHg 57%
    15:00 +12°C° 0.1 mm 9 mps 758 mmHg 57%
    16:00 +12°C° 0.1 mm 9 mps 758 mmHg 57%
    17:00 +11°C° 0.1 mm 10 mps 758 mmHg 61%
    18:00 +9°C° 0.1 mm 10 mps 759 mmHg 66%
    19:00 +8°C° 0.1 mm 10 mps 759 mmHg 71%
    20:00 +8°C° 0 mm 11 mps 760 mmHg 69%
    21:00 +7°C° 0 mm 11 mps 760 mmHg 68%
    22:00 +7°C° 0 mm 12 mps 761 mmHg 67%
    23:00 +8°C° 0 mm 12 mps 761 mmHg 65%

    27 November, Monday

    Time Temperature Precipitation Wind Pressure Humidity
    00:00 +8°C° 0 mm 12 mps 762 mmHg 63%
    01:00 +8°C° 0 mm 11 mps 762 mmHg 61%
    02:00 +8°C° 0 mm 11 mps 763 mmHg 61%
    03:00 +7°C° 0 mm 10 mps 763 mmHg 60%
    04:00 +7°C° 0 mm 10 mps 764 mmHg 60%
    05:00 +7°C° 0 mm 10 mps 764 mmHg 60%
    06:00 +6°C° 0 mm 9 mps 764 mmHg 61%
    07:00 +6°C° 0 mm 9 mps 765 mmHg 61%
    08:00 +7°C° 0 mm 9 mps 765 mmHg 57%
    09:00 +9°C° 0 mm 8 mps 765 mmHg 54%
    10:00 +9°C° 0 mm 8 mps 765 mmHg 50%
    11:00 +10°C° 0 mm 7 mps 765 mmHg 46%
    12:00 +11°C° 0 mm 6 mps 765 mmHg 42%
    13:00 +13°C° 0 mm 6 mps 765 mmHg 38%
    14:00 +13°C° 0 mm 6 mps 764 mmHg 40%
    15:00 +11°C° 0 mm 6 mps 764 mmHg 41%
    16:00 +11°C° 0 mm 6 mps 764 mmHg 43%
    17:00 +10°C° 0 mm 6 mps 765 mmHg 45%
    18:00 +9°C° 0 mm 6 mps 765 mmHg 48%
    19:00 +8°C° 0 mm 6 mps 765 mmHg 50%
    20:00 +8°C° 0 mm 6 mps 765 mmHg 52%
    21:00 +7°C° 0 mm 6 mps 765 mmHg 53%
    22:00 +7°C° 0 mm 5 mps 765 mmHg 55%
    23:00 +6°C° 0 mm 5 mps 765 mmHg 54%

    28 November, Tuesday

    Time Temperature Precipitation Wind Pressure Humidity
    00:00 +6°C° 0 mm 5 mps 765 mmHg 53%
    01:00 +5°C° 0 mm 5 mps 765 mmHg 53%
    02:00 +5°C° 0 mm 5 mps 765 mmHg 52%
    03:00 +5°C° 0 mm 5 mps 765 mmHg 51%
    04:00 +5°C° 0 mm 5 mps 765 mmHg 51%
    05:00 +4°C° 0 mm 4 mps 765 mmHg 51%
    06:00 +4°C° 0 mm 4 mps 765 mmHg 51%
    07:00 +4°C° 0 mm 4 mps 765 mmHg 51%
    08:00 +5°C° 0 mm 4 mps 765 mmHg 48%
    09:00 +8°C° 0 mm 3 mps 765 mmHg 44%
    10:00 +9°C° 0 mm 3 mps 765 mmHg 40%
    11:00 +10°C° 0 mm 3 mps 764 mmHg 38%
    12:00 +11°C° 0 mm 3 mps 764 mmHg 36%
    13:00 +11°C° 0 mm 3 mps 763 mmHg 35%
    14:00 +11°C° 0 mm 3 mps 763 mmHg 37%
    15:00 +11°C° 0 mm 3 mps 763 mmHg 40%
    16:00 +10°C° 0 mm 3 mps 763 mmHg 42%
    17:00 +10°C° 0 mm 2 mps 763 mmHg 44%
    18:00 +9°C° 0 mm 2 mps 763 mmHg 47%
    19:00 +8°C° 0 mm 2 mps 763 mmHg 49%
    20:00 +9°C° 0 mm 1 mps 763 mmHg 50%
    21:00 +9°C° 0 mm 1 mps 763 mmHg 51%
    22:00 +8°C° 0 mm 1 mps 763 mmHg 52%
    23:00 +7°C° 0 mm 2 mps 763 mmHg 52%

    29 November, Wednesday

    Time Temperature Precipitation Wind Pressure Humidity
    00:00 +7°C° 0 mm 2 mps 762 mmHg 53%
    01:00 +7°C° 0 mm 2 mps 762 mmHg 54%
    02:00 +7°C° 0 mm 3 mps 762 mmHg 54%
    03:00 +7°C° 0 mm 3 mps 761 mmHg 54%
    04:00 +7°C° 0 mm 3 mps 761 mmHg 54%
    05:00 +7°C° 0 mm 4 mps 761 mmHg 56%
    06:00 +7°C° 0 mm 4 mps 761 mmHg 58%
    07:00 +7°C° 0 mm 4 mps 761 mmHg 59%
    08:00 +8°C° 0 mm 5 mps 761 mmHg 61%
    09:00 +9°C° 0 mm 5 mps 761 mmHg 63%
    10:00 +10°C° 0 mm 5 mps 760 mmHg 64%
    11:00 +11°C° 0 mm 6 mps 760 mmHg 64%
    12:00 +13°C° 0 mm 6 mps 759 mmHg 63%
    13:00 +14°C° 0 mm 6 mps 759 mmHg 63%
    14:00 +13°C° 0 mm 6 mps 758 mmHg 65%
    15:00 +13°C° 0 mm 6 mps 758 mmHg 67%
    16:00 +13°C° 0 mm 6 mps 758 mmHg 69%
    17:00 +13°C° 0 mm 6 mps 758 mmHg 71%
    18:00 +11°C° 0 mm 6 mps 758 mmHg 73%
    19:00 +11°C° 0 mm 7 mps 758 mmHg 75%
    20:00 +11°C° 0.1 mm 7 mps 757 mmHg 76%
    21:00 +11°C° 0.1 mm 7 mps 757 mmHg 77%
    22:00 +11°C° 0.1 mm 6 mps 757 mmHg 78%
    23:00 +11°C° 0.2 mm 6 mps 757 mmHg 80%
    Show more